Home > Weather > Vancouver > Past weeks

Flag for U.S.A. Weather for the Past 2 Weeks in Vancouver, Washington, U.S.A.

Now
43 °F

Mostly cloudy.


Feels Like: 43 °F
Forecast: 41 / 60 °F
Wind: No wind

Location: Vancouver - Pearson Airpark

Current Time: Feb 7, 2016 at 12:51:29 AM

Latest Report: Feb 6, 2016 at 11:53 PM


Visibility: 10 mi

Pressure: 30.47 "Hg

Humidity: 89%

Dew point: 40 °F

Location of VancouverLocation

Historic Weather in Vancouver — Graph

°F

Vancouver Temperature Yesterday

Maximum temperature yesterday: 51 °F (at 2:53 PM)
Minimum temperature yesterday: 38 °F (at 6:53 AM)
Average temperature yesterday: 45 °F

High & Low Weather Summary for the Past Weeks

 TemperatureHumidityPressure
High57 °F (Jan 28, 12:53 PM)100% (Jan 24, 7:53 AM)30.50 "Hg (Jan 24, 7:53 AM)
Low32 °F (Feb 2, 2:59 AM)57% (Feb 5, 3:53 PM)29.63 "Hg (Jan 29, 7:53 AM)
Average45 °F84%30.15 "Hg
* Reported Jan 22 10:53 PM — Feb 6 10:53 PM, Vancouver, Weather by CustomWeather, © 2016

Note: Actual official high and low records may vary slightly from our data, if they occured in-between our weather recording intervals... More about our weather records

Advertising

Vancouver Weather History for the Previous 24 Hours

 ConditionsComfort  
Time TempWeatherWind HumidityBarometerVisibility
10:53 PM
Sat, Feb 6
44 °FOvercast.3 mph89%30.46 "Hg10 mi
9:53 PM44 °FOvercast.No wind89%30.44 "Hg10 mi
8:53 PM42 °FPartly cloudy.No wind89%30.44 "Hg10 mi
7:53 PM43 °FClear.No wind89%30.42 "Hg10 mi
6:53 PM47 °FOvercast.3 mph83%30.44 "Hg10 mi
5:53 PM48 °FPassing clouds.3 mph80%30.43 "Hg10 mi
4:53 PM50 °FOvercast.3 mph71%30.43 "Hg10 mi
3:53 PM50 °FSunny.5 mph71%30.44 "Hg10 mi
2:53 PM51 °FSunny.3 mph71%30.44 "Hg10 mi
1:53 PM50 °FSunny.No wind71%30.45 "Hg10 mi
12:53 PM50 °FSunny.3 mph77%30.46 "Hg10 mi
11:53 AM49 °FSunny.No wind80%30.49 "Hg10 mi
10:53 AM46 °FSunny.No wind86%30.50 "Hg10 mi
9:53 AM44 °FPassing clouds.No wind93%30.49 "Hg10 mi
8:53 AM42 °FSunny.No wind96%30.48 "Hg10 mi
7:53 AM38 °FSunny.No wind100%30.48 "Hg10 mi
6:53 AM38 °FClear.No wind97%30.47 "Hg10 mi
5:53 AM40 °FClear.No wind97%30.46 "Hg10 mi
4:53 AM43 °FPassing clouds.No wind89%30.45 "Hg10 mi
3:53 AM45 °FPassing clouds.3 mph86%30.43 "Hg10 mi
2:53 AM47 °FOvercast.3 mph83%30.41 "Hg10 mi
1:53 AM47 °FClear.6 mph83%30.38 "Hg10 mi
12:53 AM48 °FPassing clouds.8 mph77%30.38 "Hg10 mi
Weather by CustomWeather, © 2016

See weather overviewHow to use our weather pages